sat.trackr.live / text

‹ back to catalog

STARLINK-32693

NORAD 62437 · 2024-251F

PAYLOAD ACTIVE UNKNOWN

§ Identity

Operator
Country
US
Launch date
2024-12-29
Launch site
AFWTR
Launch vehicle
Mass (kg)
RCS (m²)

Purposes: comms

External: N2YO · Heavens-Above · Gunter

§ Orbital elements

Epoch: 2026-05-24T20:02:04.527168Z

Period
94.11 min
Inclination
53.1591°
Eccentricity
0.0000941
Mean motion
15.30195710 rev/d
Perigee alt
474.6 km
Apogee alt
475.9 km
Semi-major
6,853.4 km
B*
8.4683e-4
RAAN
338.9137°
Arg perigee
76.3335°
Mean anomaly
283.7771°
Rev number
7,964

§ Raw data

STARLINK-326931 62437U 24251F   26144.83477462  .00024802  00000+0  84683-3 0  99912 62437  53.1591 338.9137 0000941  76.3335 283.7771 15.30195710 79646

JSON: /api/v1/satellites/62437 · /tle

For live sub-satellite position, see the globe view (requires WebGL).

§ Visibility from observer

Set your observer location to see the next 7 days of passes ≥ 10°. The values pass through the URL so the page stays shareable.

No JS? Fill the form by hand. The geolocation button needs JavaScript.